Princeton/Rocky Hill (39N)
Princeton, NJ
Field Elevation: 128
Lat: 40°23.94N  Long: 74°39.54W
CTAF/Unicom Freq: 122.7250
   
     For Weather-by-Phone, call (609)-924-3901
Weather Advisories
1/29/2015 10:12 Z
Altimeter 30.31" Hg
Wind 320° @ 0 KT
Gusts --
Visibility 10 SM
Ceiling CLR
Temperature -15° C (5° F)
Dewpoint -18° C (0° F)
Relative Humidity 78%
Density Altitude --
Condensation Altitude 1,500 feet
  Wind and Runways
Indicated Runway = 28
History
 
 
More Info
All DigiWx sites map
 
NOAA Forecast
 
Airport IQ 5010
(OCNJ) Ocean City
(PN44) Upper Gwynedd Heliport
 
about DigiWx
 
FAA Disclaimer: The data displayed is for advisory purposes only and is not to be used for flight planning or operations. For official data, please call (609)-924-3901 to hear the current automated AWOS voice message.
  METAR 39N 291012Z AUTO 32000KT 10SM CLR M15/M18 A3031